STARLINK-3875, 52483

Orbit data source: Space-Track

STARLINK-3875, 52483 is a payload satellite owned by SpaceX/Seattle (US) in LEO that was launched on Fri, 06 May 2022 UTC via an FALCON 9 launch vehicle from the Air Force Eastern Test Range (AFETR). Payload-class satellites include a variety of spacecraft equipped with specific instruments for various scientific and technological missions. These include communications satellites like Starlink; space stations such as the ISS; scientific satellites like the Hubble; Earth observation satellites from companies like Planet Labs, Umbra, and HawkEye 360; GPS; miniature CubeSats for education and research; and military/defense satellites.

Loading next visibility...
Identifier
52483, 2022-049AJ
Orbit
LEO
Country
Flag of USUS
Related business
Manufacturer
SpaceX/Seattle
Mission
Operational Commercial Communications
Bus & Motor
STARLINK, Unknown motor
Mass
297 kg wet, ~220 kg dry
Launch date (UTC)
2022-05-06 (4 years ago)
Launch vehicle
FALCON 9
Launch site
Air Force Eastern Test Range (AFETR)
Object type
Payload
Rocket body
Debris
Shape & HBR
Box + 1 Pan, 10.1 m
Radar Cross Section
13.562 m², Large (>1 m²)

Expand to show TLE details & history
Last TLE update: 20 hours ago

TLE from 20 hours ago
0 STARLINK-3875
1 52483U 22049AJ  25346.54552184  .00001549  00000-0  11537-3 0  9992
2 52483  53.2188  80.3269 0001121  83.6804 276.4316 15.08840708200476
Epoch: 2025-12-12T13:05Z
TLE epoch observation values (Epoch: 2025-12-12T13:05:33.086Z)
Latitude
-0.00003°
Longitude
162.45341°
Altitude
540.552 km
Speed
7.593 km/s
True Right ascension
05h 21m 18s
True Declination
0° 00' 00"
Sunlit
Object was in full shadow at epoch
Visualization orbit readout
Latitude
Unknown
Longitude
Unknown
Altitude
Unknown
Speed
Unknown
Apparent Right ascension
Unknown
Apparent Declination
Unknown
Sunlit
N/A
Visualization observer readout
Local Sidereal Time
07:30:35
Azimuth
Unknown
Elevation
Unknown
Doppler factor
Unknown
Orbital elements
Apogee altitude
540.761 km
Perigee altitude
539.21 km
Semi-major axis
6,918.123 km
Eccentricity
0.00011
Inclination
53.2188°
RAAN
80.3269°
Arg. of periapsis
83.6804°
True anomaly
276.41883°
Mean anomaly
276.4316°
Eccentric anomaly
276.42522°
Mean motion
3.77191 °/min
Orbital period
95.44 mins
BSTAR
0.00011537
Loading maneuver chart data...
Computing Atmospheric mass density...
Loading historical data...
Loading historical data...
Loading historical data...
Loading historical data...
Loading historical data...
Loading historical data...
Loading historical data...

Documentation

Showing up to 5 results
|